Regional Weather Roundup
Issued by NWS

Home | Current Version | Previous Version | Graphics & Text | Print | Product List | Glossary Off
Versions: 1 2 3 4 5 6 7 8 9 10 11 12 13 14 15 16 17 18 19 20 21 22 23 24 25 26 27 28 29 30 31 32 33 34 35 36 37 38 39 40 41 42 43 44 45 46 47 48 49 50

000
ASUS43 KTOP 041559
RWRKS

WEATHER ROUNDUP FOR KANSAS
NATIONAL WEATHER SERVICE GOODLAND KS
1000 AM CST WED MAR 04 2015

NOTE:  "FAIR" INDICATES FEW OR NO CLOUDS BELOW 12,000 FEET WITH NO
SIGNIFICANT WEATHER AND/OR OBSTRUCTIONS TO VISIBILITY.

KSZ001>006-013>018-027>032-041>047-041700-
NORTHWEST KANSAS

CITY           SKY/WX    TMP DP  RH WIND       PRES   REMARKS
GOODLAND       CLOUDY    20   9  62 N14       30.24R WCI   7
HAYS           CLOUDY    21   7  53 N14       30.31S WCI   8
HILL CITY      FAIR      23  11  60 N10       30.32R WCI  12
RUSSELL        CLOUDY    23  14  68 N10       30.31R WCI  12
$$

KSZ061>065-074>080-084>089-041700-
SOUTHWEST KANSAS

CITY           SKY/WX    TMP DP  RH WIND       PRES   REMARKS
DODGE CITY     CLOUDY    20  12  71 NE20      30.26R WCI   4
ELKHART          N/A     18  12  77 NE15        N/A  WCI   4
GARDEN CITY    CLOUDY    19  12  74 N18       30.24S WCI   4
GREAT BEND     CLOUDY    21   9  58 N17       30.32S WCI   7
LIBERAL        CLOUDY    19  12  73 NE15      30.26R WCI   5
$$

KSZ066>073-081>083-090>101-041700-
SOUTHEAST KANSAS

CITY           SKY/WX    TMP DP  RH WIND       PRES   REMARKS
CHANUTE        CLOUDY    22  13  68 N20G26    30.27R WCI   7
COFFEYVILLE    LGT SNOW  22  17  81 N18G28    30.27R WCI   7
HUTCHINSON     CLOUDY    22  13  68 N16G22    30.30R WCI   8
MEDICINE LODGE   N/A     21  15  78 N16       30.28R WCI   7
NEWTON         CLOUDY    19  10  68 N20       30.31R WCI   4
PARSONS        FLURRIES  23  16  74 N10G21    30.28S WCI  12
WICHITA INTL   FLURRIES  21  15  78 N16       30.29R WCI   7
WICHITA JABRA  FLURRIES  20  15  81 N13G21    30.29R WCI   7
WICHITA MCCONL FLURRIES  19  14  79 NE20      30.29R WCI   4
WINFIELD       LGT SNOW  22  17  81 N21       30.28R WCI   6
$$

KSZ007>012-019>026-033>040-048>060-102>105-041700-
NORTHEAST KANSAS

CITY           SKY/WX    TMP DP  RH WIND       PRES   REMARKS
CONCORDIA      SUNNY     27   4  37 N15G22    30.32R WCI  15
EMPORIA        CLOUDY    21  14  74 N16       30.29F WCI   7
LAWRENCE       MOSUNNY   23   8  52 N14       30.33R WCI  11
MANHATTAN      MOSUNNY   25  10  53 N10       30.34R WCI  15
OLATHE IND     CLOUDY    22  10  60 N18G24    30.30R WCI   7
OLATHE EXE     CLOUDY    21  10  62 N17       30.28R WCI   7
SALINA         PTSUNNY   25  10  53 N13       30.34R WCI  14
TOPEKA BILLARD CLOUDY    23   9  55 N15       30.35R WCI  10
TOPEKA FORBES  CLOUDY    24  11  57 N13G21    30.32R WCI  12
$$



USA.gov is the U.S. government's official web portal to all federal, state and local government web resources and services.